QPF
0.00 0.00 0.00 0.00 0.00 0.00 0.00 0.00 0.00 0.00 0.00 0.00 0.00 0.00 0.00 0.00 0.00 0.00 0.00 0.00 0.00 0.00
0.00 0.00 0.00 0.00 0.00 0.00 0.00 0.00 0.00 0.00 0.00 0.00 0.00 0.00 0.00 0.00 0.00 0.00 0.00 0.00 0.00 0.00
0.00 0.00 0.00 0.00 0.00 0.00 0.00 0.00 0.00 0.00 0.00 0.00 0.00 0.00 0.00 0.00 0.00 0.00 0.00 0.00 0.00 0.00
0.00 0.00 0.00 0.00 0.00 0.00 0.00 0.00 0.00 0.00 0.00 0.00 0.00 0.00 0.00 0.00 0.00 0.00 0.00 0.00 0.00 0.00
0.00 0.00 0.00 0.00 0.00 0.00 0.00 0.00 0.00 0.00 0.00 0.00 0.00 0.00 0.00 0.00 0.00 0.00 0.00 0.00 0.00 0.00
0.00 0.00 0.00 0.00 0.00 0.00 0.00 0.00 0.00 0.00 0.00 0.00 0.00 0.00 0.00 0.00 0.00 0.00 0.00 0.00 0.00 0.00
0.00 0.00 0.00 0.00 0.00 0.00 0.00 0.00 0.00 0.00 0.00 0.00 0.00 0.00 0.00 0.00 0.00 0.00 0.00 0.00 0.00 0.00
0.00 0.00 0.00 0.00 0.00 0.00 0.00 0.00 0.00 0.00 0.00 0.00 0.00 0.00 0.00 0.00 0.00 0.00 0.00 0.00 0.00 0.00
0.00 0.00 0.00 0.00 0.00 0.00 0.00 0.00 0.00 0.00 0.00 0.00 0.00 0.00 0.00 0.00 0.00 0.00 0.00 0.00 0.00 0.00
0.00 0.00 0.00 0.00 0.00 0.00 0.00 0.00 0.00 0.00 0.00 0.00 0.00 0.00 0.00 0.00 0.00 0.00 0.00 0.00 0.00 0.00
0.00 0.00 0.00 0.00 0.00 0.00 0.00 0.00 0.00 0.00 0.00 0.00 0.00 0.00 0.00 0.00 0.00 0.00 0.00 0.00 0.00 0.00
0.00 0.00 0.00 0.00 0.00 0.00 0.00 0.00 0.00 0.00 0.00 0.00 0.00 0.00 0.00 0.00 0.00 0.00 0.00 0.00 0.00 0.00
0.00 0.00 0.00 0.00 0.00 0.00 0.00 0.00 0.00 0.00 0.00 0.00 0.00 0.00 0.00 0.00 0.00 0.00 0.00 0.00 0.00 0.00
0.00 0.00 0.00 0.00 0.00 0.00 0.00 0.00 0.00 0.00 0.00 0.00 0.00 0.00 0.00 0.00 0.00 0.00 0.00 0.00 0.00 0.00
MSLP
1020.20 1020.37 1020.43 1020.44 1020.49 1020.57 1020.56 1020.57 1020.46 1020.40 1020.28 1020.13 1019.92 1019.88 1019.90 1019.77 1019.42 1019.12 1018.84 1018.77 1018.79 1018.91
1019.72 1019.91 1020.03 1020.11 1020.21 1020.25 1020.24 1020.25 1020.28 1020.24 1020.14 1020.01 1019.89 1019.74 1019.58 1019.69 1019.69 1019.51 1019.45 1019.49 1019.47 1019.44
1019.17 1019.43 1019.67 1019.90 1020.02 1020.10 1020.07 1020.07 1020.15 1020.09 1019.92 1019.79 1019.68 1019.57 1019.47 1019.38 1019.38 1019.45 1019.40 1019.37 1019.52 1019.88
1018.43 1018.63 1018.92 1019.15 1019.34 1019.57 1019.72 1019.85 1020.01 1020.05 1019.99 1019.96 1019.94 1019.82 1019.64 1019.43 1019.29 1019.25 1019.40 1019.41 1019.38 1019.24
1018.01 1018.33 1018.58 1018.68 1018.80 1019.00 1019.16 1019.33 1019.54 1019.64 1019.64 1019.63 1019.58 1019.49 1019.44 1019.45 1019.47 1019.45 1019.34 1019.48 1019.55 1019.63
1017.29 1017.58 1017.76 1017.96 1018.15 1018.41 1018.61 1018.82 1019.10 1019.36 1019.47 1019.55 1019.60 1019.61 1019.56 1019.47 1019.37 1019.42 1019.51 1019.43 1019.64 1019.78
1016.60 1016.73 1016.93 1017.15 1017.47 1017.75 1018.00 1018.29 1018.57 1018.77 1019.01 1019.21 1019.31 1019.31 1019.43 1019.47 1019.41 1019.23 1019.03 1019.09 1019.22 1019.35
1015.63 1015.84 1016.11 1016.43 1016.68 1016.98 1017.35 1017.57 1017.82 1018.11 1018.36 1018.59 1018.83 1018.99 1019.04 1019.17 1019.23 1019.31 1019.17 1018.98 1018.86 1018.68
1015.56 1015.66 1015.69 1015.73 1015.84 1016.09 1016.42 1016.76 1017.21 1017.53 1017.70 1017.86 1017.89 1017.90 1018.31 1018.56 1018.78 1018.93 1019.01 1018.80 1018.69 1018.69
1015.33 1015.30 1015.23 1015.22 1015.46 1015.68 1015.95 1016.30 1016.53 1016.73 1017.03 1017.15 1017.25 1017.37 1017.53 1017.72 1018.26 1018.38 1018.58 1018.58 1018.42 1018.45
1015.12 1015.23 1015.02 1015.04 1015.02 1015.02 1015.27 1015.57 1015.80 1016.10 1016.34 1016.69 1016.90 1017.14 1017.14 1017.54 1017.95 1018.23 1018.24 1018.34 1018.30 1018.22
1014.98 1014.83 1014.74 1014.62 1014.49 1014.44 1014.71 1014.80 1014.99 1015.06 1015.49 1015.87 1016.30 1016.79 1017.19 1017.46 1017.97 1018.23 1018.02 1018.05 1018.17 1018.14
1014.69 1014.64 1014.51 1014.24 1014.06 1013.98 1014.02 1014.04 1014.27 1014.46 1014.63 1014.92 1015.41 1015.87 1016.47 1017.22 1017.86 1018.18 1017.95 1017.91 1017.86 1017.87
1014.44 1014.30 1014.08 1013.88 1013.62 1013.45 1013.54 1013.68 1013.95 1014.16 1014.30 1014.69 1015.07 1015.49 1015.95 1016.47 1016.87 1017.54 1017.62 1017.88 1017.92 1017.72
Thickness
5587 5583 5581 5579 5576 5574 5570 5567 5564 5562 5559 5556 5554 5551 5547 5544 5543 5542 5541 5537 5533 5528
5583 5580 5577 5574 5571 5567 5564 5560 5557 5553 5551 5548 5545 5542 5540 5535 5531 5529 5525 5520 5516 5514
5581 5577 5572 5568 5564 5560 5556 5552 5547 5544 5542 5539 5536 5534 5531 5527 5524 5519 5516 5513 5507 5498
5578 5574 5569 5563 5559 5553 5548 5543 5538 5534 5530 5526 5523 5520 5518 5517 5515 5512 5506 5502 5500 5497
5571 5565 5560 5556 5551 5546 5540 5535 5530 5525 5521 5517 5513 5510 5507 5503 5498 5496 5494 5489 5485 5480
5566 5561 5556 5550 5545 5539 5533 5527 5520 5514 5509 5505 5500 5496 5493 5490 5486 5481 5476 5473 5468 5463
5561 5556 5552 5546 5538 5532 5526 5518 5512 5506 5500 5494 5488 5483 5479 5475 5472 5470 5468 5463 5457 5451
5559 5553 5547 5540 5533 5526 5518 5512 5505 5498 5492 5485 5478 5471 5465 5460 5456 5452 5450 5448 5445 5442
5547 5542 5537 5533 5527 5521 5513 5505 5497 5489 5483 5476 5471 5466 5457 5449 5442 5436 5432 5430 5427 5423
5535 5531 5527 5522 5516 5510 5503 5494 5487 5480 5472 5465 5458 5451 5444 5439 5428 5424 5418 5413 5410 5406
5521 5516 5513 5508 5503 5498 5491 5483 5476 5467 5458 5450 5442 5434 5429 5422 5413 5407 5402 5398 5394 5390
5508 5505 5500 5495 5491 5485 5478 5471 5462 5455 5444 5435 5424 5415 5408 5403 5394 5389 5388 5384 5379 5376
5493 5489 5484 5481 5476 5470 5463 5457 5447 5439 5429 5421 5411 5403 5397 5387 5378 5373 5372 5369 5367 5364
5478 5474 5470 5466 5461 5457 5448 5439 5429 5420 5414 5405 5398 5389 5385 5377 5371 5362 5359 5353 5350 5349